Regional Weather Roundup
Issued by NWS

Home | Current Version | Previous Version | Graphics & Text | Print | Product List | Glossary On
Versions: 1 2 3 4 5 6 7 8 9 10 11 12 13 14 15 16 17 18 19 20 21 22 23 24 25 26 27 28 29 30 31 32 33 34 35 36 37 38 39 40 41 42 43 44 45 46 47 48 49 50
000
ASUS43 KOAX 301710
RWRNE

WEATHER ROUNDUP FOR NEBRASKA
NATIONAL WEATHER SERVICE OMAHA NE
1200 PM CDT THU JUL 30 2015

NOTES: SATELLITE DATA IS BEING USED TO AUGMENT CLOUD COVER ABOVE
       12000 FEET.
       "FAIR" INDICATES FEW OR NO CLOUDS BELOW 12,000 FEET WITH NO
       SIGNIFICANT WEATHER AND/OR OBSTRUCTIONS TO VISIBILITY.

  * THESE STATIONS DO NOT REPORT WEATHER SUCH AS RAIN...SNOW OR FOG.

NEZ001>004-019>022-054>056-301800-
NEBRASKA PANHANDLE

CITY           SKY/WX    TMP DP  RH WIND       PRES   REMARKS
SCOTTSBLUFF    SUNNY     78  55  44 CALM      30.30S
ALLIANCE       SUNNY     81  53  37 N6        30.29S
CHADRON        SUNNY     79  50  36 VRB3      30.28R
KIMBALL        SUNNY     78  55  44 N8        30.33S
SIDNEY         SUNNY     83  61  47 CALM      30.32S
$$

NEZ057>060-069>072-079>082-301800-
SOUTHWEST NEBRASKA

CITY           SKY/WX    TMP DP  RH WIND       PRES   REMARKS
NORTH PLATTE   SUNNY     82  61  48 W9        30.26R
IMPERIAL       MOSUNNY   82  64  54 SW10      30.28S
LEXINGTON      SUNNY     81  65  58 S10       30.26S
MCCOOK         MOSUNNY   82  63  52 S9        30.26S
OGALLALA       SUNNY     80  65  60 CALM      30.28S
$$

NEZ005>010-023>029-035>040-094-301800-
NORTH CENTRAL NEBRASKA

CITY           SKY/WX    TMP DP  RH WIND       PRES   REMARKS
VALENTINE      SUNNY     86  52  30 VRB3      30.22S
AINSWORTH      PTSUNNY   82  58  44 W9        30.23S
BROKEN BOW     SUNNY     82  63  52 SW7       30.25S
O`NEILL        SUNNY     83  61  47 W6        30.22S
ORD            SUNNY     83  61  47 W9        30.22F
THEDFORD       PTSUNNY   82  61  48 W8        30.26S
$$

NEZ041-046>049-061>064-073>077-083>087-301800-
SOUTH CENTRAL NEBRASKA

CITY           SKY/WX    TMP DP  RH WIND       PRES   REMARKS
GRAND ISLAND   SUNNY     84  58  40 S10       30.25R
AURORA         SUNNY     82  62  50 SW10      30.24R
HASTINGS       SUNNY     82  62  50 SW10      30.24S
HEBRON         SUNNY     82  60  46 SW8       30.24S
HOLDREGE       SUNNY     81  63  53 S7        30.25F
KEARNEY *      SUNNY     81  63  54 SW13      30.25S
YORK           SUNNY     82  63  51 SW12      30.23R
$$

NEZ011>018-030>034-042>045-301800-
NORTHEAST NEBRASKA

CITY           SKY/WX    TMP DP  RH WIND       PRES   REMARKS
NORFOLK        SUNNY     84  60  44 W13       30.21S
ALBION         SUNNY     83  53  36 SW8       30.24R
BLAIR          SUNNY     79  61  53 SW7       30.22S
COLUMBUS *     SUNNY     81  63  54 NW7       30.22F
FREMONT        SUNNY     81  63  52 W5        30.22S
TEKAMAH        SUNNY     83  67  58 W6        30.20S
WAYNE          MOSUNNY   82  64  54 W9        30.21S
$$

NEZ050>053-065>068-078-088>093-301800-
SOUTHEAST NEBRASKA

CITY           SKY/WX    TMP DP  RH WIND       PRES   REMARKS
LINCOLN        SUNNY     87  57  35 SW15      30.21F
OMAHA EPPLEY   MOSUNNY   86  55  34 VRB6      30.20S
BEATRICE       SUNNY     82  63  52 SW7       30.23S
FALLS CITY     SUNNY     83  64  52 VRB5      30.22S
NEBRASKA CITY  SUNNY     81  62  53 SW8       30.22F
PLATTSMOUTH    SUNNY     82  62  50 S7        30.21F
$$

NEZ044-045-051>053-067-301800-
OMAHA AREA

CITY           SKY/WX    TMP DP  RH WIND       PRES   REMARKS
OMAHA EPPLEY   MOSUNNY   86  55  34 VRB6      30.20S
BLAIR          SUNNY     79  61  53 SW7       30.22S
FREMONT        SUNNY     81  63  52 W5        30.22S
MILLARD        SUNNY     83  58  42 W10       30.21S
OFFUTT AFB     SUNNY     83  61  47 W8        30.20S
PLATTSMOUTH    SUNNY     82  62  50 S7        30.21F
WAHOO          FAIR      82  65  56 CALM      30.22S
$$


USA.gov is the U.S. government's official web portal to all federal, state and local government web resources and services.